Regional Weather Roundup
Issued by NWS Jackson, KY

Home | Current Version | Previous Version | Text Only | Print | Product List | Glossary Off
Versions: 1 2 3 4 5 6 7 8 9 10 11 12 13 14 15 16 17 18 19 20 21 22 23 24 25 26 27 28 29 30 31 32 33 34 35 36 37 38 39 40 41 42 43 44 45 46 47 48 49 50

000
ASUS43 KJKL 292210
RWRJKL

EAST KENTUCKY HOURLY WEATHER ROUNDUP
NATIONAL WEATHER SERVICE JACKSON KY
600 PM EDT SAT AUG 29 2015

NOTE: "FAIR" INDICATES FEW OR NO CLOUDS BELOW 12,000 FEET WITH
NO SIGNIFICANT WEATHER AND/OR OBSTRUCTIONS TO VISIBILITY.

* THESE REPORTS ARE NOT UNDER NWS QUALITY CONTROL AND MAY NOT
  REPORT WEATHER SUCH AS PRECIPITATION AND FOG.

KYZ079-080-083-085-087-088-110-112-115-119-120-292300
...EASTERN KENTUCKY...

CITY           SKY/WX    TMP DP  RH WIND       PRES   REMARKS
JACKSON        MOSUNNY   83  65  54 CALM      30.12F
LONDON         SUNNY     84  63  49 S6        30.11F
SOMERSET*      PTSUNNY   82  64  54 S3        30.10F
MONTICELLO*    PTSUNNY   84  70  63 CALM      30.12F
MIDDLESBORO*   SUNNY     86  63  47 SE3       30.12F
HAZARD APT*    CLEAR     84  63  48 SW3       30.12F
BLACK MTN*       N/A     70  63  78 S1          N/A
PIKEVILLE APT* SUNNY     81  64  57 SE3       30.14F
BIG SANDY*     PTCLDY    82  65  56 SE5       30.13S
MOREHEAD APT*  PTCLDY    84  66  54 S3        30.11F
$$

KYZ035-036-041-042-044-050-067-078-099-292300
...CENTRAL KENTUCKY...

CITY           SKY/WX    TMP DP  RH WIND       PRES   REMARKS
MT STERLING*   PTSUNNY  N/A N/A N/A SW8       30.10F
FLEMING/MASON* MOSUNNY   82  68  61 SW3       30.09F
DANVILLE*      MOSUNNY   84  68  58 S6        30.09F
RICHMOND*      MOSUNNY   84  64  51 S6        30.09F
LEXINGTON      MOSUNNY   84  67  56 CALM      30.08F
FRANKFORT      SUNNY     84  66  54 S9        30.06S
$$

KYZ091>093-OHZ055-061-077-WVZ005-015-034-035-042-292300
...SOUTHERN OHIO/WEST VIRGINIA...

CITY           SKY/WX    TMP DP  RH WIND       PRES   REMARKS
COVINGTON      PTSUNNY   74  70  87 S3        30.06F
COLUMBUS       PTSUNNY   84  61  45 SW8       30.05F
DAYTON         PTSUNNY   83  65  54 SW8       30.07F
WILMINGTON     LGT RAIN  74  67  78 NW9       30.08S
HUNTINGTON     MOSUNNY   85  63  47 S8        30.08F
CHARLESTON     MOSUNNY   85  61  44 S8        30.10F
PINEVILLE*     PTSUNNY   76  69  79 MISG      30.21F
BECKLEY        CLOUDY    78  59  51 W8        30.20F
BLUEFIELD      PTSUNNY   77  58  51 NW5       30.23F
$$

VAZ002-007-008-TNZ017-027-036-066-071-292300
...SOUTHWEST VIRGINIA/EAST TENNESSEE...

CITY           SKY/WX    TMP DP  RH WIND       PRES   REMARKS
WISE*          PTSUNNY   75  57  53 S5        30.23S
JONESVILLE*    MOCLDY    82  32  16 SE3       30.15F
ABINGDON*      CLOUDY    79  60  52 S3        30.18F
BRISTOL        CLOUDY    79  66  64 CALM      30.15F
KNOXVILLE      PTSUNNY   89  71  55 NE7       30.09F HX  95
OAK RIDGE      MOSUNNY   85  63  47 CALM      30.11F
CROSSVILLE     MOSUNNY   79  64  60 S8        30.15F
NASHVILLE      CLOUDY    80  68  66 S10       30.07S
$$

...KEY TO REMARKS...
VSB - VISIBILITY IN MILES
WCI - WIND CHILL INDEX
HX  - HEAT INDEX

$$


USA.gov is the U.S. government's official web portal to all federal, state and local government web resources and services.